Time,TemperatureF,DewpointF,PressureIn,WindDirection,WindDirectionDegrees,WindSpeedMPH,WindSpeedGustMPH,Humidity,HourlyPrecipIn,Conditions,Clouds,dailyrainin,SoftwareType,DateUTC
2013-03-10 00:00:00,30.2,20.9,30.19,NW,322,0.0,0.0,68,0.00,,,0.04,Wunderground v.1.15,2013-03-10 07:00:00,
2013-03-10 00:05:00,30.5,20.8,30.18,NW,322,0.0,0.0,67,0.00,,,0.00,Wunderground v.1.15,2013-03-10 07:05:00,
2013-03-10 00:15:00,30.0,20.7,30.19,NW,322,0.0,0.0,68,0.00,,,0.00,Wunderground v.1.15,2013-03-10 07:15:00,
2013-03-10 00:20:00,29.6,20.3,30.20,NW,322,0.0,0.0,68,0.00,,,0.00,Wunderground v.1.15,2013-03-10 07:20:00,
2013-03-10 00:25:00,29.7,20.8,30.19,NW,322,0.0,0.0,69,0.00,,,0.00,Wunderground v.1.15,2013-03-10 07:25:00,
2013-03-10 00:30:00,29.8,20.9,30.20,NW,322,0.0,0.0,69,0.00,,,0.00,Wunderground v.1.15,2013-03-10 07:30:00,
2013-03-10 00:35:00,29.7,20.8,30.20,NW,322,1.0,1.0,69,0.00,,,0.00,Wunderground v.1.15,2013-03-10 07:35:00,
2013-03-10 00:45:00,30.1,21.2,30.21,NW,321,2.0,2.0,69,0.00,,,0.00,Wunderground v.1.15,2013-03-10 07:45:00,
2013-03-10 00:50:00,30.1,21.2,30.21,NW,321,2.0,2.0,69,0.00,,,0.00,Wunderground v.1.15,2013-03-10 07:50:00,
2013-03-10 01:00:00,30.4,21.1,30.21,NW,321,1.0,1.0,68,0.00,,,0.00,Wunderground v.1.15,2013-03-10 08:00:00,
2013-03-10 01:05:00,30.4,21.1,30.21,NW,321,1.0,2.0,68,0.00,,,0.00,Wunderground v.1.15,2013-03-10 08:05:00,
2013-03-10 01:15:00,29.9,20.6,30.22,NW,322,1.0,2.0,68,0.00,,,0.00,Wunderground v.1.15,2013-03-10 08:15:00,
2013-03-10 01:20:00,29.4,20.5,30.22,NW,322,2.0,2.0,69,0.00,,,0.00,Wunderground v.1.15,2013-03-10 08:20:00,
2013-03-10 01:25:00,29.3,20.4,30.23,NW,322,2.0,2.0,69,0.00,,,0.00,Wunderground v.1.15,2013-03-10 08:25:00,
2013-03-10 01:30:00,29.1,20.5,30.23,NW,322,1.0,2.0,70,0.00,,,0.00,Wunderground v.1.15,2013-03-10 08:30:00,
2013-03-10 01:35:00,28.5,19.6,30.23,NW,322,1.0,3.0,69,0.00,,,0.00,Wunderground v.1.15,2013-03-10 08:35:00,
2013-03-10 01:40:00,27.8,19.6,30.24,NW,322,2.0,2.0,71,0.00,,,0.00,Wunderground v.1.15,2013-03-10 08:40:00,
2013-03-10 01:50:00,27.3,20.1,30.25,WNW,290,3.0,3.0,74,0.00,,,0.00,Wunderground v.1.15,2013-03-10 08:50:00,
2013-03-10 01:55:00,28.2,21.3,30.23,West,279,4.0,6.0,75,0.00,,,0.00,Wunderground v.1.15,2013-03-10 08:55:00,
2013-03-10 03:00:00,29.9,22.0,30.23,WNW,283,5.0,5.0,72,0.00,,,0.00,Wunderground v.1.15,2013-03-10 09:00:00,
2013-03-10 03:05:00,30.5,21.5,30.21,North,355,3.0,5.0,69,0.00,,,0.00,Wunderground v.1.15,2013-03-10 09:05:00,
2013-03-10 03:15:00,30.0,21.1,30.22,NNW,346,1.0,3.0,69,0.00,,,0.00,Wunderground v.1.15,2013-03-10 09:15:00,
2013-03-10 03:20:00,29.2,20.3,30.23,NNW,347,1.0,4.0,69,0.00,,,0.00,Wunderground v.1.15,2013-03-10 09:20:00,
2013-03-10 03:25:00,28.6,20.4,30.22,West,279,2.0,4.0,71,0.00,,,0.00,Wunderground v.1.15,2013-03-10 09:25:00,
2013-03-10 03:30:00,28.2,20.0,30.24,NNE,29,2.0,2.0,71,0.00,,,0.00,Wunderground v.1.15,2013-03-10 09:30:00,
2013-03-10 03:40:00,28.2,20.0,30.24,NW,325,2.0,2.0,71,0.00,,,0.00,Wunderground v.1.15,2013-03-10 09:40:00,
2013-03-10 03:50:00,28.1,20.2,30.24,NW,325,0.0,0.0,72,0.00,,,0.00,Wunderground v.1.15,2013-03-10 09:50:00,
2013-03-10 03:55:00,28.0,20.1,30.24,NW,325,0.0,0.0,72,0.00,,,0.00,Wunderground v.1.15,2013-03-10 09:55:00,
2013-03-10 04:00:00,26.8,19.0,30.24,NW,325,1.0,3.0,72,0.00,,,0.00,Wunderground v.1.15,2013-03-10 10:00:00,
2013-03-10 04:05:00,27.0,19.8,30.23,NW,325,3.0,3.0,74,0.00,,,0.00,Wunderground v.1.15,2013-03-10 10:05:00,
2013-03-10 04:10:00,27.0,19.5,30.23,NW,319,3.0,3.0,73,0.00,,,0.00,Wunderground v.1.15,2013-03-10 10:10:00,
2013-03-10 04:20:00,27.8,19.9,30.24,North,360,2.0,2.0,72,0.00,,,0.00,Wunderground v.1.15,2013-03-10 10:20:00,
2013-03-10 04:25:00,28.4,20.5,30.24,NNW,338,1.0,2.0,72,0.00,,,0.00,Wunderground v.1.15,2013-03-10 10:25:00,
2013-03-10 04:30:00,28.8,20.2,30.23,NNW,338,1.0,1.0,70,0.00,,,0.00,Wunderground v.1.15,2013-03-10 10:30:00,
2013-03-10 04:35:00,29.0,20.1,30.24,NNW,338,0.0,2.0,69,0.00,,,0.00,Wunderground v.1.15,2013-03-10 10:35:00,
2013-03-10 04:40:00,28.6,19.7,30.24,NE,37,1.0,1.0,69,0.00,,,0.00,Wunderground v.1.15,2013-03-10 10:40:00,
2013-03-10 04:45:00,28.0,19.1,30.25,NE,38,1.0,1.0,69,0.00,,,0.00,Wunderground v.1.15,2013-03-10 10:45:00,
2013-03-10 04:55:00,27.3,19.1,30.26,NE,38,1.0,3.0,71,0.00,,,0.00,Wunderground v.1.15,2013-03-10 10:55:00,
2013-03-10 05:00:00,27.4,19.2,30.26,NE,39,2.0,2.0,71,0.00,,,0.00,Wunderground v.1.15,2013-03-10 11:00:00,
2013-03-10 05:05:00,27.3,18.8,30.25,NE,39,2.0,2.0,70,0.00,,,0.00,Wunderground v.1.15,2013-03-10 11:05:00,
2013-03-10 05:15:00,26.6,18.5,30.26,NE,39,0.0,2.0,71,0.00,,,0.00,Wunderground v.1.15,2013-03-10 11:15:00,
2013-03-10 05:25:00,25.8,18.3,30.27,NE,39,1.0,1.0,73,0.00,,,0.00,Wunderground v.1.15,2013-03-10 11:25:00,
2013-03-10 05:30:00,25.5,18.0,30.27,NE,39,1.0,1.0,73,0.00,,,0.00,Wunderground v.1.15,2013-03-10 11:30:00,
2013-03-10 05:35:00,24.9,17.5,30.28,NE,38,1.0,1.0,73,0.00,,,0.00,Wunderground v.1.15,2013-03-10 11:35:00,
2013-03-10 05:40:00,24.3,16.9,30.28,NE,39,0.0,0.0,73,0.00,,,0.00,Wunderground v.1.15,2013-03-10 11:40:00,
2013-03-10 05:45:00,23.8,17.0,30.29,NE,39,0.0,0.0,75,0.00,,,0.00,Wunderground v.1.15,2013-03-10 11:45:00,
2013-03-10 05:50:00,23.6,17.1,30.30,NE,38,0.0,0.0,76,0.00,,,0.00,Wunderground v.1.15,2013-03-10 11:50:00,
2013-03-10 05:55:00,23.8,17.6,30.30,NE,37,1.0,1.0,77,0.00,,,0.00,Wunderground v.1.15,2013-03-10 11:55:00,
2013-03-10 06:00:00,23.9,17.7,30.30,NE,37,1.0,1.0,77,0.00,,,0.00,Wunderground v.1.15,2013-03-10 12:00:00,
2013-03-10 06:05:00,23.8,17.6,30.30,NE,37,0.0,1.0,77,0.00,,,0.00,Wunderground v.1.15,2013-03-10 12:05:00,
2013-03-10 06:15:00,23.8,17.6,30.31,NE,37,1.0,2.0,77,0.00,,,0.00,Wunderground v.1.15,2013-03-10 12:15:00,
2013-03-10 06:20:00,23.7,17.5,30.31,NE,37,1.0,1.0,77,0.00,,,0.00,Wunderground v.1.15,2013-03-10 12:20:00,
2013-03-10 06:30:00,23.6,17.7,30.31,NE,37,0.0,0.0,78,0.00,,,0.00,Wunderground v.1.15,2013-03-10 12:30:00,
2013-03-10 06:35:00,23.7,17.8,30.31,NE,37,0.0,0.0,78,0.00,,,0.00,Wunderground v.1.15,2013-03-10 12:35:00,
2013-03-10 06:40:00,23.8,17.6,30.32,NE,37,0.0,1.0,77,0.00,,,0.00,Wunderground v.1.15,2013-03-10 12:40:00,
2013-03-10 06:45:00,23.9,18.0,30.31,NE,37,0.0,2.0,78,0.00,,,0.00,Wunderground v.1.15,2013-03-10 12:45:00,
2013-03-10 06:50:00,24.0,18.1,30.31,NE,37,0.0,0.0,78,0.00,,,0.00,Wunderground v.1.15,2013-03-10 12:50:00,
2013-03-10 07:00:00,24.2,18.3,30.31,NE,37,1.0,1.0,78,0.00,,,0.00,Wunderground v.1.15,2013-03-10 13:00:00,
2013-03-10 07:05:00,24.2,18.0,30.33,NE,37,1.0,3.0,77,0.00,,,0.00,Wunderground v.1.15,2013-03-10 13:05:00,
2013-03-10 07:15:00,23.9,17.7,30.33,NE,37,2.0,2.0,77,0.00,,,0.00,Wunderground v.1.15,2013-03-10 13:15:00,
2013-03-10 07:20:00,23.6,17.4,30.33,NE,37,1.0,1.0,77,0.00,,,0.00,Wunderground v.1.15,2013-03-10 13:20:00,
2013-03-10 07:25:00,23.3,17.2,30.34,NE,37,1.0,1.0,77,0.00,,,0.00,Wunderground v.1.15,2013-03-10 13:25:00,
2013-03-10 07:30:00,23.2,17.4,30.34,NE,37,0.0,0.0,78,0.00,,,0.00,Wunderground v.1.15,2013-03-10 13:30:00,
2013-03-10 07:35:00,23.3,17.5,30.34,NE,37,1.0,2.0,78,0.00,,,0.00,Wunderground v.1.15,2013-03-10 13:35:00,
2013-03-10 07:40:00,23.4,17.6,30.34,NE,37,1.0,1.0,78,0.00,,,0.00,Wunderground v.1.15,2013-03-10 13:40:00,
2013-03-10 07:45:00,23.4,17.6,30.34,NE,37,0.0,1.0,78,0.00,,,0.00,Wunderground v.1.15,2013-03-10 13:45:00,
2013-03-10 07:50:00,22.7,16.3,30.35,NE,37,1.0,2.0,76,0.00,,,0.00,Wunderground v.1.15,2013-03-10 13:50:00,
2013-03-10 07:55:00,22.4,16.6,30.35,NE,37,1.0,2.0,78,0.00,,,0.00,Wunderground v.1.15,2013-03-10 13:55:00,
2013-03-10 08:05:00,22.7,17.2,30.37,NE,37,0.0,2.0,79,0.00,,,0.00,Wunderground v.1.15,2013-03-10 14:05:00,
2013-03-10 08:15:00,23.1,17.6,30.37,NE,37,0.0,0.0,79,0.00,,,0.00,Wunderground v.1.15,2013-03-10 14:15:00,
2013-03-10 08:20:00,23.4,17.8,30.38,NE,37,0.0,0.0,79,0.00,,,0.00,Wunderground v.1.15,2013-03-10 14:20:00,
2013-03-10 08:30:00,23.6,18.0,30.37,NE,37,0.0,0.0,79,0.00,,,0.00,Wunderground v.1.15,2013-03-10 14:30:00,
2013-03-10 08:35:00,23.9,18.6,30.37,NE,37,0.0,0.0,80,0.00,,,0.00,Wunderground v.1.15,2013-03-10 14:35:00,
2013-03-10 08:40:00,24.5,19.5,30.38,NE,37,1.0,1.0,81,0.00,,,0.00,Wunderground v.1.15,2013-03-10 14:40:00,
2013-03-10 08:45:00,25.4,20.4,30.37,NE,37,0.0,3.0,81,0.00,,,0.00,Wunderground v.1.15,2013-03-10 14:45:00,
2013-03-10 08:50:00,26.3,21.3,30.37,NE,37,0.0,1.0,81,0.00,,,0.00,Wunderground v.1.15,2013-03-10 14:50:00,
2013-03-10 09:00:00,28.0,22.6,30.36,NE,37,1.0,1.0,80,0.00,,,0.00,Wunderground v.1.15,2013-03-10 15:00:00,
2013-03-10 09:05:00,28.9,22.9,30.36,NE,37,0.0,1.0,78,0.00,,,0.00,Wunderground v.1.15,2013-03-10 15:05:00,
2013-03-10 09:15:00,30.1,23.4,30.35,NE,37,1.0,2.0,76,0.00,,,0.00,Wunderground v.1.15,2013-03-10 15:15:00,
2013-03-10 09:20:00,30.8,24.1,30.35,NE,37,1.0,1.0,76,0.00,,,0.00,Wunderground v.1.15,2013-03-10 15:20:00,
2013-03-10 09:25:00,31.2,23.2,30.36,NW,304,2.0,2.0,72,0.00,,,0.00,Wunderground v.1.15,2013-03-10 15:25:00,
2013-03-10 09:30:00,31.5,22.8,30.35,WNW,303,2.0,2.0,70,0.00,,,0.00,Wunderground v.1.15,2013-03-10 15:30:00,
2013-03-10 09:40:00,32.3,23.3,30.35,WNW,282,2.0,3.0,69,0.00,,,0.00,Wunderground v.1.15,2013-03-10 15:40:00,
2013-03-10 09:45:00,32.6,23.6,30.35,WNW,290,2.0,3.0,69,0.00,,,0.00,Wunderground v.1.15,2013-03-10 15:45:00,
2013-03-10 09:55:00,33.7,23.9,30.33,WNW,290,1.0,1.0,67,0.00,,,0.00,Wunderground v.1.15,2013-03-10 15:55:00,
2013-03-10 10:00:00,34.2,24.4,30.34,WNW,290,1.0,1.0,67,0.00,,,0.00,Wunderground v.1.15,2013-03-10 16:00:00,
2013-03-10 10:05:00,34.5,24.3,30.34,WNW,289,1.0,3.0,66,0.00,,,0.00,Wunderground v.1.15,2013-03-10 16:05:00,
2013-03-10 10:15:00,35.8,25.2,30.33,WNW,286,1.0,1.0,65,0.00,,,0.00,Wunderground v.1.15,2013-03-10 16:15:00,
2013-03-10 10:20:00,36.3,25.3,30.33,WNW,295,1.0,3.0,64,0.00,,,0.00,Wunderground v.1.15,2013-03-10 16:20:00,
2013-03-10 10:30:00,37.2,25.0,30.33,WSW,247,2.0,2.0,61,0.00,,,0.00,Wunderground v.1.15,2013-03-10 16:30:00,
2013-03-10 10:40:00,39.2,23.0,30.32,WSW,242,0.0,0.0,52,0.00,,,0.00,Wunderground v.1.15,2013-03-10 16:40:00,
2013-03-10 10:45:00,40.2,21.6,30.31,WSW,242,0.0,0.0,47,0.00,,,0.00,Wunderground v.1.15,2013-03-10 16:45:00,
2013-03-10 10:50:00,40.8,20.5,30.31,WSW,244,0.0,0.0,44,0.00,,,0.00,Wunderground v.1.15,2013-03-10 16:50:00,
2013-03-10 10:55:00,41.2,20.9,30.31,South,190,1.0,3.0,44,0.00,,,0.00,Wunderground v.1.15,2013-03-10 16:55:00,
2013-03-10 11:05:00,41.9,21.5,30.32,SSW,196,2.0,4.0,44,0.00,,,0.00,Wunderground v.1.15,2013-03-10 17:05:00,
2013-03-10 11:15:00,41.5,21.7,30.32,SW,220,3.0,3.0,45,0.00,,,0.00,Wunderground v.1.15,2013-03-10 17:15:00,
2013-03-10 11:20:00,42.1,21.2,30.32,SSE,167,2.0,2.0,43,0.00,,,0.00,Wunderground v.1.15,2013-03-10 17:20:00,
2013-03-10 11:25:00,42.8,21.8,30.31,South,176,1.0,6.0,43,0.00,,,0.00,Wunderground v.1.15,2013-03-10 17:25:00,
2013-03-10 11:30:00,42.6,20.5,30.31,South,179,2.0,3.0,41,0.00,,,0.00,Wunderground v.1.15,2013-03-10 17:30:00,
2013-03-10 11:35:00,42.7,21.2,30.31,SE,145,3.0,3.0,42,0.00,,,0.00,Wunderground v.1.15,2013-03-10 17:35:00,
2013-03-10 11:40:00,43.6,21.4,30.31,SW,221,2.0,2.0,41,0.00,,,0.00,Wunderground v.1.15,2013-03-10 17:40:00,
2013-03-10 11:45:00,43.8,22.2,30.31,South,187,3.0,5.0,42,0.00,,,0.00,Wunderground v.1.15,2013-03-10 17:45:00,
2013-03-10 11:50:00,44.4,22.1,30.31,East,85,3.0,4.0,41,0.00,,,0.00,Wunderground v.1.15,2013-03-10 17:50:00,
2013-03-10 11:55:00,45.5,22.5,30.30,SE,130,3.0,4.0,40,0.00,,,0.00,Wunderground v.1.15,2013-03-10 17:55:00,
2013-03-10 12:00:00,46.1,21.9,30.29,ESE,118,2.0,2.0,38,0.00,,,0.00,Wunderground v.1.15,2013-03-10 18:00:00,
2013-03-10 12:05:00,45.9,23.5,30.29,SSW,199,2.0,2.0,41,0.00,,,0.00,Wunderground v.1.15,2013-03-10 18:05:00,
2013-03-10 12:15:00,44.0,21.8,30.30,WSW,237,3.0,4.0,41,0.00,,,0.00,Wunderground v.1.15,2013-03-10 18:15:00,
2013-03-10 12:25:00,43.8,22.2,30.29,South,191,4.0,6.0,42,0.00,,,0.00,Wunderground v.1.15,2013-03-10 18:25:00,
2013-03-10 12:30:00,44.1,21.3,30.29,West,272,4.0,4.0,40,0.00,,,0.00,Wunderground v.1.15,2013-03-10 18:30:00,
2013-03-10 12:35:00,44.5,22.8,30.29,SW,229,4.0,5.0,42,0.00,,,0.00,Wunderground v.1.15,2013-03-10 18:35:00,
2013-03-10 12:40:00,44.5,22.8,30.28,West,269,5.0,5.0,42,0.00,,,0.00,Wunderground v.1.15,2013-03-10 18:40:00,
2013-03-10 12:50:00,44.7,23.5,30.28,SSW,194,5.0,5.0,43,0.00,,,0.00,Wunderground v.1.15,2013-03-10 18:50:00,
2013-03-10 12:55:00,45.5,22.5,30.28,SSE,161,4.0,5.0,40,0.00,,,0.00,Wunderground v.1.15,2013-03-10 18:55:00,
2013-03-10 13:00:00,46.5,24.0,30.26,SSW,206,4.0,10.0,41,0.00,,,0.00,Wunderground v.1.15,2013-03-10 19:00:00,
2013-03-10 13:05:00,46.4,23.4,30.27,South,172,5.0,10.0,40,0.00,,,0.00,Wunderground v.1.15,2013-03-10 19:05:00,
2013-03-10 13:15:00,46.4,22.1,30.26,SE,142,4.0,6.0,38,0.00,,,0.00,Wunderground v.1.15,2013-03-10 19:15:00,
2013-03-10 13:20:00,47.0,23.9,30.26,South,184,3.0,3.0,40,0.00,,,0.00,Wunderground v.1.15,2013-03-10 19:20:00,
2013-03-10 13:25:00,47.5,23.1,30.25,SW,225,2.0,3.0,38,0.00,,,0.00,Wunderground v.1.15,2013-03-10 19:25:00,
2013-03-10 13:30:00,47.0,22.7,30.25,WSW,237,3.0,5.0,38,0.00,,,0.00,Wunderground v.1.15,2013-03-10 19:30:00,
2013-03-10 13:40:00,46.8,23.7,30.25,WSW,256,4.0,5.0,40,0.00,,,0.00,Wunderground v.1.15,2013-03-10 19:40:00,
2013-03-10 13:45:00,46.5,22.8,30.25,WSW,258,4.0,5.0,39,0.00,,,0.00,Wunderground v.1.15,2013-03-10 19:45:00,
2013-03-10 13:50:00,47.0,23.9,30.25,NW,314,4.0,4.0,40,0.00,,,0.00,Wunderground v.1.15,2013-03-10 19:50:00,
2013-03-10 14:00:00,47.9,23.5,30.23,WSW,250,3.0,5.0,38,0.00,,,0.00,Wunderground v.1.15,2013-03-10 20:00:00,
2013-03-10 14:05:00,47.3,22.9,30.24,SW,236,5.0,5.0,38,0.00,,,0.00,Wunderground v.1.15,2013-03-10 20:05:00,
2013-03-10 14:15:00,48.2,23.7,30.23,WNW,300,1.0,4.0,38,0.00,,,0.00,Wunderground v.1.15,2013-03-10 20:15:00,
2013-03-10 14:25:00,49.0,24.5,30.22,WSW,243,4.0,5.0,38,0.00,,,0.00,Wunderground v.1.15,2013-03-10 20:25:00,
2013-03-10 14:30:00,48.5,23.4,30.23,West,276,5.0,6.0,37,0.00,,,0.00,Wunderground v.1.15,2013-03-10 20:30:00,
2013-03-10 14:35:00,48.5,24.0,30.22,South,188,4.0,6.0,38,0.00,,,0.00,Wunderground v.1.15,2013-03-10 20:35:00,
2013-03-10 14:40:00,48.7,25.4,30.22,WNW,296,4.0,6.0,40,0.00,,,0.00,Wunderground v.1.15,2013-03-10 20:40:00,
2013-03-10 14:45:00,48.8,24.3,30.22,West,277,5.0,6.0,38,0.00,,,0.00,Wunderground v.1.15,2013-03-10 20:45:00,
2013-03-10 14:55:00,49.6,24.4,30.20,West,261,4.0,7.0,37,0.00,,,0.00,Wunderground v.1.15,2013-03-10 20:55:00,
2013-03-10 15:00:00,49.4,23.5,30.21,WSW,242,4.0,4.0,36,0.00,,,0.00,Wunderground v.1.15,2013-03-10 21:00:00,
2013-03-10 15:05:00,49.2,24.0,30.22,NW,320,4.0,6.0,37,0.00,,,0.00,Wunderground v.1.15,2013-03-10 21:05:00,
2013-03-10 15:15:00,49.5,24.3,30.22,North,355,2.0,4.0,37,0.00,,,0.00,Wunderground v.1.15,2013-03-10 21:15:00,
2013-03-10 15:25:00,50.9,26.2,30.20,North,5,2.0,2.0,38,0.00,,,0.00,Wunderground v.1.15,2013-03-10 21:25:00,
2013-03-10 15:35:00,50.7,26.0,30.20,NW,321,3.0,7.0,38,0.00,,,0.00,Wunderground v.1.15,2013-03-10 21:35:00,
2013-03-10 15:40:00,51.1,25.7,30.20,NW,307,5.0,5.0,37,0.00,,,0.00,Wunderground v.1.15,2013-03-10 21:40:00,
2013-03-10 15:45:00,51.7,25.6,30.20,North,5,3.0,5.0,36,0.00,,,0.00,Wunderground v.1.15,2013-03-10 21:45:00,
2013-03-10 15:50:00,52.2,25.3,30.20,NNE,20,3.0,3.0,35,0.00,,,0.00,Wunderground v.1.15,2013-03-10 21:50:00,
2013-03-10 15:55:00,52.1,25.9,30.19,WNW,282,3.0,3.0,36,0.00,,,0.00,Wunderground v.1.15,2013-03-10 21:55:00,
2013-03-10 16:05:00,51.0,25.0,30.19,West,265,4.0,6.0,36,0.00,,,0.00,Wunderground v.1.15,2013-03-10 22:05:00,
2013-03-10 16:15:00,51.0,25.6,30.19,NNW,332,2.0,3.0,37,0.00,,,0.00,Wunderground v.1.15,2013-03-10 22:15:00,
2013-03-10 16:20:00,51.8,25.0,30.19,NE,56,1.0,5.0,35,0.00,,,0.00,Wunderground v.1.15,2013-03-10 22:20:00,
2013-03-10 16:25:00,51.4,25.3,30.19,NE,52,3.0,5.0,36,0.00,,,0.00,Wunderground v.1.15,2013-03-10 22:25:00,
2013-03-10 16:30:00,51.8,25.0,30.19,North,5,3.0,3.0,35,0.00,,,0.00,Wunderground v.1.15,2013-03-10 22:30:00,
2013-03-10 16:40:00,53.3,26.3,30.17,WSW,237,0.0,5.0,35,0.00,,,0.00,Wunderground v.1.15,2013-03-10 22:40:00,
2013-03-10 16:45:00,53.5,25.8,30.17,SW,221,1.0,5.0,34,0.00,,,0.00,Wunderground v.1.15,2013-03-10 22:45:00,
2013-03-10 16:50:00,52.7,25.1,30.17,SW,215,4.0,4.0,34,0.00,,,0.00,Wunderground v.1.15,2013-03-10 22:50:00,
2013-03-10 16:55:00,52.5,25.6,30.17,SW,219,4.0,5.0,35,0.00,,,0.00,Wunderground v.1.15,2013-03-10 22:55:00,
2013-03-10 17:05:00,52.4,25.5,30.19,WSW,253,2.0,5.0,35,0.00,,,0.00,Wunderground v.1.15,2013-03-10 23:05:00,
2013-03-10 17:15:00,52.8,25.9,30.19,West,280,2.0,5.0,35,0.00,,,0.00,Wunderground v.1.15,2013-03-10 23:15:00,
2013-03-10 17:20:00,52.6,25.7,30.20,WNW,301,3.0,3.0,35,0.00,,,0.00,Wunderground v.1.15,2013-03-10 23:20:00,
2013-03-10 17:25:00,52.6,25.7,30.20,West,281,4.0,4.0,35,0.00,,,0.00,Wunderground v.1.15,2013-03-10 23:25:00,
2013-03-10 17:35:00,52.0,25.2,30.19,West,260,3.0,6.0,35,0.00,,,0.00,Wunderground v.1.15,2013-03-10 23:35:00,
2013-03-10 17:40:00,51.8,25.0,30.19,WSW,252,3.0,3.0,35,0.00,,,0.00,Wunderground v.1.15,2013-03-10 23:40:00,
2013-03-10 17:45:00,52.0,25.8,30.19,WSW,250,2.0,4.0,36,0.00,,,0.00,Wunderground v.1.15,2013-03-10 23:45:00,
2013-03-10 17:55:00,52.4,26.2,30.19,NW,323,2.0,2.0,36,0.00,,,0.00,Wunderground v.1.15,2013-03-10 23:55:00,
2013-03-10 18:00:00,52.2,26.0,30.19,WNW,284,3.0,3.0,36,0.00,,,0.00,Wunderground v.1.15,2013-03-11 00:00:00,
2013-03-10 18:05:00,52.3,25.4,30.19,WNW,292,3.0,3.0,35,0.00,,,0.00,Wunderground v.1.15,2013-03-11 00:05:00,
2013-03-10 18:15:00,52.6,25.7,30.19,NW,322,1.0,2.0,35,0.00,,,0.00,Wunderground v.1.15,2013-03-11 00:15:00,
2013-03-10 18:20:00,53.0,25.3,30.19,West,263,1.0,3.0,34,0.00,,,0.00,Wunderground v.1.15,2013-03-11 00:20:00,
2013-03-10 18:25:00,52.3,24.7,30.19,WSW,242,2.0,3.0,34,0.00,,,0.00,Wunderground v.1.15,2013-03-11 00:25:00,
2013-03-10 18:30:00,51.7,24.9,30.18,WSW,243,2.0,2.0,35,0.00,,,0.00,Wunderground v.1.15,2013-03-11 00:30:00,
2013-03-10 18:35:00,51.5,24.7,30.18,WSW,243,1.0,3.0,35,0.00,,,0.00,Wunderground v.1.15,2013-03-11 00:35:00,
2013-03-10 18:40:00,51.1,24.4,30.19,WSW,244,2.0,2.0,35,0.00,,,0.00,Wunderground v.1.15,2013-03-11 00:40:00,
2013-03-10 18:45:00,50.7,24.0,30.20,WSW,244,3.0,3.0,35,0.00,,,0.00,Wunderground v.1.15,2013-03-11 00:45:00,
2013-03-10 18:50:00,50.5,24.5,30.20,WSW,244,1.0,1.0,36,0.00,,,0.00,Wunderground v.1.15,2013-03-11 00:50:00,
2013-03-10 19:00:00,50.1,24.8,30.19,WSW,244,0.0,0.0,37,0.00,,,0.00,Wunderground v.1.15,2013-03-11 01:00:00,
2013-03-10 19:05:00,50.0,24.7,30.21,WSW,244,0.0,0.0,37,0.00,,,0.00,Wunderground v.1.15,2013-03-11 01:05:00,
2013-03-10 19:15:00,49.6,24.4,30.21,WSW,244,0.0,0.0,37,0.00,,,0.00,Wunderground v.1.15,2013-03-11 01:15:00,
2013-03-10 19:20:00,49.2,24.0,30.21,WSW,244,0.0,0.0,37,0.00,,,0.00,Wunderground v.1.15,2013-03-11 01:20:00,
2013-03-10 19:25:00,48.7,23.6,30.21,WSW,244,0.0,0.0,37,0.00,,,0.00,Wunderground v.1.15,2013-03-11 01:25:00,
2013-03-10 19:35:00,47.9,24.1,30.22,WSW,244,0.0,0.0,39,0.00,,,0.00,Wunderground v.1.15,2013-03-11 01:35:00,
2013-03-10 19:40:00,47.4,24.3,30.22,WSW,244,1.0,2.0,40,0.00,,,0.00,Wunderground v.1.15,2013-03-11 01:40:00,
2013-03-10 19:45:00,46.8,24.3,30.22,NNE,25,1.0,2.0,41,0.00,,,0.00,Wunderground v.1.15,2013-03-11 01:45:00,
2013-03-10 19:50:00,46.1,24.8,30.23,NNE,25,1.0,1.0,43,0.00,,,0.00,Wunderground v.1.15,2013-03-11 01:50:00,
2013-03-10 19:55:00,44.8,24.2,30.24,NNE,25,0.0,1.0,44,0.00,,,0.00,Wunderground v.1.15,2013-03-11 01:55:00,
2013-03-10 20:05:00,42.9,24.5,30.22,NNE,25,0.0,0.0,48,0.00,,,0.00,Wunderground v.1.15,2013-03-11 02:05:00,
2013-03-10 20:15:00,42.2,24.9,30.24,NNE,25,0.0,0.0,50,0.00,,,0.00,Wunderground v.1.15,2013-03-11 02:15:00,
2013-03-10 20:20:00,42.0,25.2,30.24,NNE,25,0.0,0.0,51,0.00,,,0.00,Wunderground v.1.15,2013-03-11 02:20:00,
2013-03-10 20:25:00,41.8,25.4,30.24,NNE,25,0.0,0.0,52,0.00,,,0.00,Wunderground v.1.15,2013-03-11 02:25:00,
2013-03-10 20:30:00,41.4,25.5,30.25,NNE,25,0.0,0.0,53,0.00,,,0.00,Wunderground v.1.15,2013-03-11 02:30:00,
2013-03-10 20:35:00,41.1,25.3,30.25,NNE,25,0.0,0.0,53,0.00,,,0.00,Wunderground v.1.15,2013-03-11 02:35:00,
2013-03-10 20:45:00,39.9,24.6,30.26,NNE,25,0.0,0.0,54,0.00,,,0.00,Wunderground v.1.15,2013-03-11 02:45:00,
2013-03-10 20:50:00,38.9,24.5,30.26,NNE,25,0.0,0.0,56,0.00,,,0.00,Wunderground v.1.15,2013-03-11 02:50:00,
2013-03-10 20:55:00,38.0,24.5,30.27,NNE,25,0.0,0.0,58,0.00,,,0.00,Wunderground v.1.15,2013-03-11 02:55:00,
2013-03-10 21:00:00,37.7,24.6,30.28,North,360,0.0,3.0,59,0.00,,,0.00,Wunderground v.1.15,2013-03-11 03:00:00,
2013-03-10 21:05:00,37.5,24.9,30.25,North,350,1.0,3.0,60,0.00,,,0.00,Wunderground v.1.15,2013-03-11 03:05:00,
2013-03-10 21:15:00,36.5,24.7,30.26,North,355,1.0,2.0,62,0.00,,,0.00,Wunderground v.1.15,2013-03-11 03:15:00,
2013-03-10 21:20:00,36.5,24.7,30.27,North,355,0.0,0.0,62,0.00,,,0.00,Wunderground v.1.15,2013-03-11 03:20:00,
2013-03-10 21:25:00,36.6,25.6,30.27,North,355,0.0,1.0,64,0.00,,,0.00,Wunderground v.1.15,2013-03-11 03:25:00,
2013-03-10 21:35:00,36.3,26.0,30.27,North,355,1.0,1.0,66,0.00,,,0.00,Wunderground v.1.15,2013-03-11 03:35:00,
2013-03-10 21:40:00,36.4,26.1,30.27,North,355,0.0,0.0,66,0.00,,,0.00,Wunderground v.1.15,2013-03-11 03:40:00,
2013-03-10 21:50:00,35.7,25.4,30.26,North,355,0.0,0.0,66,0.00,,,0.00,Wunderground v.1.15,2013-03-11 03:50:00,
2013-03-10 21:55:00,35.3,25.8,30.27,North,355,0.0,0.0,68,0.00,,,0.00,Wunderground v.1.15,2013-03-11 03:55:00,
2013-03-10 22:00:00,35.1,25.9,30.27,North,355,1.0,1.0,69,0.00,,,0.00,Wunderground v.1.15,2013-03-11 04:00:00,
2013-03-10 22:05:00,35.1,26.3,30.23,North,355,1.0,2.0,70,0.00,,,0.00,Wunderground v.1.15,2013-03-11 04:05:00,
2013-03-10 22:15:00,34.8,26.0,30.23,North,355,0.0,1.0,70,0.00,,,0.00,Wunderground v.1.15,2013-03-11 04:15:00,
2013-03-10 22:20:00,34.6,26.2,30.24,North,355,0.0,0.0,71,0.00,,,0.00,Wunderground v.1.15,2013-03-11 04:20:00,
2013-03-10 22:25:00,34.5,26.1,30.24,North,355,0.0,0.0,71,0.00,,,0.00,Wunderground v.1.15,2013-03-11 04:25:00,
2013-03-10 22:30:00,34.4,26.0,30.25,North,355,0.0,0.0,71,0.00,,,0.00,Wunderground v.1.15,2013-03-11 04:30:00,
2013-03-10 22:35:00,33.6,24.9,30.25,North,355,0.0,0.0,70,0.00,,,0.00,Wunderground v.1.15,2013-03-11 04:35:00,
2013-03-10 22:40:00,32.9,24.9,30.26,North,355,0.0,0.0,72,0.00,,,0.00,Wunderground v.1.15,2013-03-11 04:40:00,
2013-03-10 22:50:00,32.7,25.6,30.26,North,355,0.0,0.0,75,0.00,,,0.00,Wunderground v.1.15,2013-03-11 04:50:00,
2013-03-10 22:55:00,32.8,26.1,30.26,North,355,0.0,1.0,76,0.00,,,0.00,Wunderground v.1.15,2013-03-11 04:55:00,
2013-03-10 23:00:00,33.1,26.4,30.27,North,355,0.0,0.0,76,0.00,,,0.00,Wunderground v.1.15,2013-03-11 05:00:00,
2013-03-10 23:05:00,33.1,26.4,30.25,North,355,0.0,0.0,76,0.00,,,0.00,Wunderground v.1.15,2013-03-11 05:05:00,
2013-03-10 23:15:00,32.4,25.7,30.25,North,355,0.0,0.0,76,0.00,,,0.00,Wunderground v.1.15,2013-03-11 05:15:00,
2013-03-10 23:25:00,32.2,25.8,30.24,North,355,0.0,0.0,77,0.00,,,0.00,Wunderground v.1.15,2013-03-11 05:25:00,
2013-03-10 23:30:00,32.3,26.2,30.24,North,355,0.0,0.0,78,0.00,,,0.00,Wunderground v.1.15,2013-03-11 05:30:00,
2013-03-10 23:35:00,32.5,26.4,30.24,North,355,0.0,0.0,78,0.00,,,0.00,Wunderground v.1.15,2013-03-11 05:35:00,
2013-03-10 23:40:00,32.5,26.4,30.24,North,355,0.0,0.0,78,0.00,,,0.00,Wunderground v.1.15,2013-03-11 05:40:00,
2013-03-10 23:45:00,32.6,26.5,30.24,North,355,0.0,0.0,78,0.00,,,0.00,Wunderground v.1.15,2013-03-11 05:45:00,
2013-03-10 23:55:00,32.9,26.5,30.24,North,355,0.0,0.0,77,0.00,,,0.00,Wunderground v.1.15,2013-03-11 05:55:00,